SL-16 DEB, 22604

Orbit data source: Space-Track

SL-16 DEB, 22604 is space debris in LEO originally from a launch on Fri, 26 Mar 1993 UTC launched from the Tyuratam Missile And Space Complex (TTMTR). Debris objects in space refer to the collection of defunct objects orbiting the Earth. Examples of debris include non-operational satellites, rocket bodies, and fragments generated from explosions, collisions, or faulty payload assembly.

Loading next visibility...
Identifier
22604, 1993-016N
Orbit
LEO
Country
Flag of CISCIS
Related business
Manufacturer
Unknown
Mission
Spacecraft
Bus & Motor
Unknown
Mass
Unknown
Launch date (UTC)
1993-03-26 (33 years ago)
Launch vehicle
Unknown
Launch site
Tyuratam Missile And Space Complex (TTMTR)
Object type
Payload
Rocket body
Debris
Shape & HBR
Unknown shape, 0.2 m
Radar Cross Section
Medium (>0.1 m² and <1 m²)

Expand to show TLE details & history
Last TLE update: 13 hours ago

TLE from 13 hours ago
0 SL-16 DEB
1 22604U 93016N   26255.13155248  .00000004  00000-0  43647-4 0  9994
2 22604  70.9935 313.0876 0171300 313.8370  70.2057 13.76507725680990
Epoch: 2026-09-12T03:09Z
TLE epoch observation values (Epoch: 2026-09-12T03:09:26.134Z)
Latitude
24.43073°
Longitude
-76.46139°
Altitude
937.965 km
Speed
7.406 km/s
True Right ascension
21h 28m 10s
True Declination
24° 18' 17"
Sunlit
Object was in full shadow at epoch
Visualization orbit readout
Latitude
Unknown
Longitude
Unknown
Altitude
Unknown
Speed
Unknown
Apparent Right ascension
Unknown
Apparent Declination
Unknown
Sunlit
N/A
Visualization observer readout
Local Sidereal Time
08:48:00
Azimuth
Unknown
Elevation
Unknown
Doppler factor
Unknown
Orbital elements
Apogee altitude
1,100.209 km
Perigee altitude
848.316 km
Semi-major axis
7,352.399 km
Eccentricity
0.01713
Inclination
70.9935°
RAAN
313.0876°
Arg. of periapsis
313.837°
True anomaly
72.06583°
Mean anomaly
70.2057°
Eccentric anomaly
71.13445°
Mean motion
3.4427 °/min
Orbital period
104.57 mins
BSTAR
0.000043647
Loading maneuver chart data...
Computing Atmospheric mass density...
Loading historical data...
Loading historical data...
Loading historical data...
Loading historical data...
Loading historical data...
Loading historical data...
Loading historical data...

Documentation

Showing up to 5 results
|